International Virtual Aviation Organisation

Russian Federation and Kazakhstan MCD

 

Карточка аэропорта UAAA

Внимание!
Информация на этой странице в стадии наполнения.
Если вы не увидели какой-то информации, или заметили неточность - пожалуйста сообщите нам!
Спасибо!
Команда RU-STAFF
Название аэропортаАлматы
Название аэропорта (англ.)Almaty
Превышение2238 ft. (682.1 m.)
Координаты43°21.072', 77°1.5960000000001'
Высота перехода600
Эшелон переходаFL070
Коды ответчика3501-3517, 3401-3427
Зона ОрВДАлматы РПИ (UAAA)
Данные METARUAAA 140730Z VRB01MPS 9999 FEW200 22/01 Q1022 R88/65D NOSIG
Проноз погоды (TAF)UAAA 140500Z 1406/1506 34003MPS 9999 SCT050CB BKN100 TX20/1408Z TN02/1501Z TEMPO 1406/1412 29004G10MPS TEMPO 1412/1415 16003MPS 5000 BR FU TEMPO 1415/1424 24005G15MPS 3100 -SHRA BKN030CB OVC100
NOTAMshow/hide NOTAM
AWOS   TABLE

Информация о ВПП

ВПП Длина ВПП (м.) Покрытие Курс ВПП Частота ILS
05L4500Бетон51109.1
23R4500Бетон231111.3
05R4400Асфальтобетон51110.3
23L4400Асфальтобетон231108.1

Диспетчерские позиции

Позывной Наименование органа УВД Частота
UAAA_APPАлматы-Подход124.8
UAAA_TWRАлматы-Вышка119.4
UAAA_GNDАлматы-Руление121.7
UAAA_R_APPАлматы-Круг120.8



Спутниковое изображение